2023/01/31 00:00:00,21.5, 0.1
2023/01/31 00:10:00,21.4, 0.2
2023/01/31 00:20:00,21.3, 0.2
2023/01/31 00:30:00,21.3, 0.0
2023/01/31 00:40:00,21.3, 0.2
2023/01/31 00:50:00,21.3, 0.1
2023/01/31 01:00:00,21.3, 0.1
2023/01/31 01:10:00,21.4, 0.4
2023/01/31 01:20:00,21.6, 0.0
2023/01/31 01:30:00,21.7,-0.1
2023/01/31 01:40:00,21.8,-0.6
2023/01/31 01:50:00,21.7,-0.4
2023/01/31 02:00:00,21.9,-0.2
2023/01/31 02:10:00,21.8,-0.3
2023/01/31 02:20:00,21.8,-0.2
2023/01/31 02:30:00,21.8, 0.0
2023/01/31 02:40:00,21.8, 0.0
2023/01/31 02:50:00,21.8,-0.1
2023/01/31 03:00:00,21.8, 0.0
2023/01/31 03:10:00,21.8,-0.3
2023/01/31 03:20:00,21.8,-0.2
2023/01/31 03:30:00,21.8,-0.4
2023/01/31 03:40:00,21.8,-0.3
2023/01/31 03:50:00,21.8,-0.3
2023/01/31 04:00:00,21.8,-0.1
2023/01/31 04:10:00,21.8,-0.1
2023/01/31 04:20:00,21.8,-0.6
2023/01/31 04:30:00,21.8,-0.3
2023/01/31 04:40:00,21.8, 0.0
2023/01/31 04:50:00,21.8, 0.2
2023/01/31 05:00:00,21.8, 0.3
2023/01/31 05:10:00,21.8, 0.4
2023/01/31 05:20:00,21.7, 0.7
2023/01/31 05:30:00,21.8, 0.2
2023/01/31 05:40:00,22.1, 0.1
2023/01/31 05:50:00,22.1, 0.0
2023/01/31 06:00:00,22.0, 0.1
2023/01/31 06:10:00,22.0, 0.1
2023/01/31 06:20:00,22.0, 0.0
2023/01/31 06:30:00,22.0,-0.1
2023/01/31 06:40:00,22.0,-0.2
2023/01/31 06:50:00,21.9,-0.1
2023/01/31 07:00:00,21.9,-0.1
2023/01/31 07:10:00,21.8,-0.3
2023/01/31 07:20:00,22.0,-0.2
2023/01/31 07:30:00,22.1,-0.4
2023/01/31 07:40:00,22.2, 0.1
2023/01/31 07:50:00,22.2, 0.0
2023/01/31 08:00:00,22.1,-0.1
2023/01/31 08:10:00,22.1, 0.0
2023/01/31 08:20:00,22.1, 0.0
2023/01/31 08:30:00,22.0, 0.5
2023/01/31 08:40:00,22.0, 0.6
2023/01/31 08:50:00,22.0, 1.2
2023/01/31 09:00:00,22.2, 3.7
2023/01/31 09:10:00,22.4, 5.8
2023/01/31 09:20:00,22.3, 6.9
2023/01/31 09:30:00,22.1, 4.5
2023/01/31 09:40:00,22.0, 5.3
2023/01/31 09:50:00,21.9, 6.8
2023/01/31 10:00:00,22.1, 9.2
2023/01/31 10:10:00,21.9, 8.2
2023/01/31 10:20:00,21.8, 9.6
2023/01/31 10:30:00,21.8,11.9
2023/01/31 10:40:00,21.8,12.8
2023/01/31 10:50:00,21.8,12.4
2023/01/31 11:00:00,21.8,13.1
2023/01/31 11:10:00,21.8,12.6
2023/01/31 11:20:00,21.8,12.1
2023/01/31 11:30:00,21.6,11.9
2023/01/31 11:40:00,21.5,11.6
2023/01/31 11:50:00,21.0,12.3
2023/01/31 12:00:00,21.0,12.4
2023/01/31 12:10:00,21.1,13.0
2023/01/31 12:20:00,21.1,14.7
2023/01/31 12:30:00,21.0,15.0
2023/01/31 12:40:00,20.8,14.1
2023/01/31 12:50:00,20.8,17.3
2023/01/31 13:00:00,20.5,18.2
2023/01/31 13:10:00,20.4,17.4
2023/01/31 13:20:00,20.2,16.5
2023/01/31 13:30:00,20.2,16.3
2023/01/31 13:40:00,20.2,15.8
2023/01/31 13:50:00,20.1,18.8
2023/01/31 14:00:00,19.7,11.4
2023/01/31 14:10:00,19.3,10.3
2023/01/31 14:20:00,19.6,15.8
2023/01/31 14:30:00,19.1,14.8
2023/01/31 14:40:00,18.9,15.8
2023/01/31 14:50:00,18.9,16.5
2023/01/31 15:00:00,18.6,13.8
2023/01/31 15:10:00,18.5,14.8
2023/01/31 15:20:00,18.4,15.1
2023/01/31 15:30:00,18.3,15.6
2023/01/31 15:40:00,18.2,15.8
2023/01/31 15:50:00,18.1,15.2
2023/01/31 16:00:00,18.0,13.9
2023/01/31 16:10:00,17.9,12.7
2023/01/31 16:20:00,17.9,10.7
2023/01/31 16:30:00,17.9, 8.0
2023/01/31 16:40:00,17.8, 6.3
2023/01/31 16:50:00,17.8, 5.9
2023/01/31 17:00:00,17.6, 4.3
2023/01/31 17:10:00,17.5, 3.6
2023/01/31 17:20:00,17.5, 2.8
2023/01/31 17:30:00,17.5, 2.2
2023/01/31 17:40:00,17.5, 1.8
2023/01/31 17:50:00,17.5, 1.2
2023/01/31 18:00:00,17.4, 1.2
2023/01/31 18:10:00,17.4, 1.4
2023/01/31 18:20:00,17.4, 1.4
2023/01/31 18:30:00,17.5, 0.5
2023/01/31 18:40:00,17.5, 0.4
2023/01/31 18:50:00,17.4,-0.2
2023/01/31 19:00:00,17.4,-0.1
2023/01/31 19:10:00,17.5, 0.0
2023/01/31 19:20:00,17.5, 0.0
2023/01/31 19:30:00,17.5,-0.4
2023/01/31 19:40:00,17.5,-0.5
2023/01/31 19:50:00,17.5, 0.0
2023/01/31 20:00:00,17.5, 0.1
2023/01/31 20:10:00,17.5,-0.4
2023/01/31 20:20:00,17.5,-0.4
2023/01/31 20:30:00,17.5,-0.8
2023/01/31 20:40:00,17.5,-1.0
2023/01/31 20:50:00,17.5,-1.2
2023/01/31 21:00:00,17.5,-1.3
2023/01/31 21:10:00,17.5,-1.5
2023/01/31 21:20:00,17.7,-1.5
2023/01/31 21:30:00,17.7,-1.7
2023/01/31 21:40:00,17.8,-1.6
2023/01/31 21:50:00,17.9,-1.7
2023/01/31 22:00:00,17.9,-1.6
2023/01/31 22:10:00,17.9,-1.7
2023/01/31 22:20:00,17.9,-1.4
2023/01/31 22:30:00,17.8,-1.2
2023/01/31 22:40:00,17.7,-1.7
2023/01/31 22:50:00,17.7,-1.3
2023/01/31 23:00:00,17.6,-1.5
2023/01/31 23:10:00,17.4,-2.1
2023/01/31 23:20:00,17.4,-2.0
2023/01/31 23:30:00,17.5,-2.2
2023/01/31 23:40:00,17.5,-1.8
2023/01/31 23:50:00,17.4,-1.5
